Location: Antoign�
(47.0844°N, 0.1131°W)
Time: 23:42:56
(UTC+00:00)

CSL-04 Rocket - Pass Details

Date: 03 March 2021
Orbit: 805 x 861 km, 98.9° (Epoch: 14 April)

Event Time Altitude Azimuth Distance (km) Brightness Sun altitude
Rises 18:22:18 0° 143° (SE) 3,426 6.5 -6.5°
Reaches altitude 10° 18:24:46 10° 137° (SE) 2,491 5.8 -6.9°
Maximum altitude 18:29:59 44° 67° (ENE) 1,167 4.1 -7.8°
Drops below altitude 10° 18:35:11 10° 357° (N) 2,485 6.2 -8.7°
Sets 18:37:38 0° 351° (N) 3,417 7.0 -9.1°
